Regional Weather Roundup
Issued by NWS

Home | Current Version | Previous Version | Text Only | Print | Product List | Glossary Off
Versions: 1 2 3 4 5 6 7 8 9 10 11 12 13 14 15 16 17 18 19 20 21 22 23 24 25 26 27

000
ASUS43 KDMX 250007
RWRIA

WEATHER ROUNDUP FOR IOWA
NATIONAL WEATHER SERVICE DES MOINES IA
700 PM CDT FRI OCT 24 2014

NOTE: "FAIR" INDICATES FEW OR NO CLOUDS BELOW 12,000 FEET WITH NO
SIGNIFICANT WEATHER AND/OR OBSTRUCTIONS TO VISIBILITY.

* - THESE STATIONS ARE NOT NWS STATIONS...THUS NOT UNDER NWS
QUALITY CONTROL.  THEY ALSO DO NOT REPORT WEATHER SUCH
AS PRECIPITATION OR FOG.

IAZ001>003-012>014-020>022-031>034-043>046-250100-
   NORTHWEST IOWA

CITY           SKY/WX    TMP DP  RH WIND       PRES   REMARKS
CARROLL *      CLEAR     61  54  77 NW3       29.92R
CHEROKEE *     CLEAR     62  49  62 CALM      29.94R
DENISON *      CLEAR     64  54  68 CALM      29.92R
LE MARS *      CLEAR     61  46  59 CALM      29.93S
ORANGE CITY *  CLEAR     68  45  42 CALM      29.94R
SHELDON *      CLEAR     61  45  55 CALM      29.92R
SIOUX CITY     PTCLDY    64  46  52 N5        29.94R
6HR MIN TEMP:  63; 6HR MAX TEMP:  78;

SPENCER        CLEAR     59  43  55 NW9       29.93R
6HR MIN TEMP:  58; 6HR MAX TEMP:  75;

STORM LAKE *   CLEAR     63  48  59 W5        29.95R
$$

IAZ055>058-069>071-079>083-090>094-250100-
   SOUTHWEST IOWA

CITY           SKY/WX    TMP DP  RH WIND       PRES   REMARKS
ATLANTIC *     CLEAR     61  59  94 CALM      29.93  FOG
AUDUBON *      CLEAR     61  54  77 SW5       29.94S
CLARINDA *     CLEAR     63  61  94 CALM      29.94R
COUNCIL BLFS * CLEAR     68  61  77 W3        29.93R
CRESTON *      CLEAR     66  63  88 CALM      29.93R
HARLAN  *      CLEAR     63  57  82 CALM      29.97R
LAMONI         PTCLDY    66  61  84 S3        29.93R
6HR MIN TEMP:  60; 6HR MAX TEMP:  69;

RED OAK *      CLEAR     63  59  88 CALM      29.93R
SHENANDOAH *   CLEAR     64  59  82 CALM      29.93R
$$

IAZ047>049-059>061-072>074-084-250100-
   CENTRAL IOWA

CITY           SKY/WX    TMP DP  RH WIND       PRES   REMARKS
AMES           PTCLDY    59  56  89 S5        29.91R
6HR MIN TEMP:  59; 6HR MAX TEMP:  71;

ANKENY *       CLEAR     61  61 100 S3        29.92R FOG
CHARITON *     CLEAR     59  59 100 S3        29.92S FOG
DES MOINES     MOCLDY    62  59  90 S5        29.92R
6HR MIN TEMP:  62; 6HR MAX TEMP:  68;

GRINNELL*      CLOUDY    61  58  92 S5        29.94R FOG
KNOXVILLE *    CLOUDY    61  59  94 CALM      29.92R FOG
MARSHALLTOWN   MOCLDY    61  59  93 S5        29.92R FOG
6HR MIN TEMP:  60; 6HR MAX TEMP:  63;

PELLA *        PTCLDY    61  59  92 CALM      29.94R FOG
PERRY *          N/A     63  57  82 SW6       29.92R
$$

IAZ004>006-015-016-023>025-035-036-250100-
   NORTH CENTRAL IOWA

CITY           SKY/WX    TMP DP  RH WIND       PRES   REMARKS
ALGONA *       CLEAR     61  55  82 SW5       29.91S
CLARION *      CLEAR     61  55  82 CALM      29.92R
ESTHERVILLE    PTCLDY    59  37  44 W6        29.91R
6HR MIN TEMP:  59; 6HR MAX TEMP:  75;

FORT DODGE *   PTCLDY    63  52  67 CALM      29.92R
MASON CITY     MOCLDY    57  54  89 CALM      29.92R
6HR MIN TEMP:  56; 6HR MAX TEMP:  68;

FOREST CITY *  CLEAR     57  52  82 SW3       29.90R
IOWA FALLS *     N/A     59  57  94 SE3       29.92S FOG
$$

IAZ007>011-017>019-026>030-037>042-050>054-066-250100-
   NORTHEAST IOWA

CITY           SKY/WX    TMP DP  RH WIND       PRES   REMARKS
CEDAR RAPIDS   MOCLDY    58  58 100 S5        29.93R FOG
6HR MIN TEMP:  56; 6HR MAX TEMP:  64; 6HR PCP: TRACE;

CHARLES CITY * FOG       57  57 100 CALM      29.91R VSB 0
CLINTON *      CLOUDY    63  52  67 W5        29.96R
DECORAH *      CLOUDY    59  57  94 SW6       29.91S
DUBUQUE        CLOUDY    60  54  80 SW8       29.93R
6HR MIN TEMP:  55; 6HR MAX TEMP:  64;

MONTICELLO *   CLOUDY    61  57  88 SW5       29.93R
OELWEIN *      CLOUDY    59  59 100 S7        29.92S FOG
WATERLOO       MOCLDY    58  57  97 S3        29.91R FOG
6HR MIN TEMP:  55; 6HR MAX TEMP:  61; 6HR PCP:  0.02;

$$

IAZ064-065-067-068-078-250100-
   EAST CENTRAL IOWA

CITY           SKY/WX    TMP DP  RH WIND       PRES   REMARKS
DAVENPORT      CLOUDY    65  53  65 W13       29.95R
6HR MIN TEMP:  63; 6HR MAX TEMP:  69;

IOWA CITY      CLOUDY    60  60 100 S5        29.95S FOG
6HR MIN TEMP:  58; 6HR MAX TEMP:  65; 6HR PCP:  0.01;

MT. PLEASANT * MOCLDY    56  56 100 SW5       29.93F FOG
MUSCATINE *    CLOUDY    63  57  82 SW6G12    29.96R
QUAD CITIES    CLOUDY    66  54  65 W9        29.94R
6HR MIN TEMP:  64; 6HR MAX TEMP:  70;

$$

IAZ062-063-075>077-085>089-095>099-250100-
   SOUTHEAST IOWA

CITY           SKY/WX    TMP DP  RH WIND       PRES   REMARKS
BURLINGTON     MOCLDY    63  57  81 SW8       29.93R
6HR MIN TEMP:  59; 6HR MAX TEMP:  66;

FAIRFIELD *    CLOUDY    61  57  88 CALM      29.94R
FORT MADISON * CLEAR     63  61  94 CALM      29.94R
KEOKUK *       CLEAR     64  59  82 S8        29.92R
OSKALOOSA *    CLOUDY    63  59  87 CALM      29.94S
CENTERVILLE *  PTCLDY    59  59 100 CALM      29.94S
OTTUMWA        MOCLDY    63  59  87 NW5       29.94R
6HR MIN TEMP:  60; 6HR MAX TEMP:  65;

WASHINGTON *   CLOUDY    61  61 100 CALM      29.95R
$$

ABBREVIATIONS USED IN REMARKS
   TC - TEMPERATURES IN CELSIUS
  WCI - WIND CHILL INDEX
   HX - HEAT INDEX
  VSB - VISIBILITY
$$




USA.gov is the U.S. government's official web portal to all federal, state and local government web resources and services.